Location: Gad�tanya
(48.0500°N, 20.8500°E)
Time: 11:36:54
(UTC+00:00)

USA 267 - Pass Details

Date: 05 July 2020
Orbit: 1102 x 1106 km, 123.0° (Epoch: 12 August)

Event Time Altitude Azimuth Distance (km) Brightness Sun altitude
Exits shadow 19:46:38 - 103° (ESE) 3,616 5.5 -9.2°
Reaches altitude 10° 19:48:21 10° 100° (E) 2,958 5.1 -9.4°
Maximum altitude 19:54:44 59° 23° (NNE) 1,259 3.8 -10.0°
Drops below altitude 10° 20:01:08 10° 306° (NW) 2,967 6.9 -10.7°
Sets 20:03:39 0° 303° (WNW) 3,927 7.7 -10.9°
